GW4592 Weather Reports


time (UTC)temp
C
wind
direction
speed
KPH
gust
KPH
rain 1hr
cm
rain 24hr
cm
rain mn
cm
humidity
%
barometer
mb
20260906131636 31 335 3.2 4.8 0.00 0.00 0.00 62 1013.8
20260906131131 31 277 1.6 6.4 0.00 0.00 0.00 61 1014.0
20260906130626 31 318 3.2 4.8 0.00 0.00 0.00 59 1013.9
20260906130121 32 223 3.2 6.4 0.00 0.00 0.00 60 1013.8
20260906125619 31 303 1.6 6.4 0.00 0.00 0.00 60 1013.9
20260906125117 31 284 3.2 8.0 0.00 0.00 0.00 63 1014.1
20260906124613 31 331 3.2 4.8 0.00 0.00 0.00 63 1014.1
20260906124108 31 297 3.2 6.4 0.00 0.00 0.00 60 1014.0
20260906123608 31 329 0.0 8.0 0.00 0.00 0.00 59 1014.0
20260906123103 32 312 8.0 12.9 0.00 0.00 0.00 59 1013.9
20260906122601 32 313 3.2 16.1 0.00 0.00 0.00 58 1013.9
20260906122058 32 177 3.2 6.4 0.00 0.00 0.00 60 1013.9
20260906121554 32 339 3.2 4.8 0.00 0.00 0.00 59 1013.9
20260906121050 31 258 6.4 19.3 0.00 0.00 0.00 60 1013.9
20260906120545 31 334 4.8 12.9 0.00 0.00 0.00 59 1014.0
20260906120042 32 346 6.4 8.0 0.00 0.00 0.00 58 1013.8
20260906115537 33 317 3.2 4.8 0.00 0.00 0.00 57 1014.0
20260906115032 33 99 0.0 6.4 0.00 0.00 0.00 57 1014.0
20260906114531 32 280 3.2 4.8 0.00 0.00 0.00 58 1014.0
20260906114027 32 338 1.6 8.0 0.00 0.00 0.00 59 1014.1
20260906113525 32 281 3.2 8.0 0.00 0.00 0.00 59 1014.1
20260906113022 32 305 0.0 12.9 0.00 0.00 0.00 57 1014.2
20260906112516 32 330 4.8 8.0 0.00 0.00 0.00 57 1014.2
20260906112013 32 340 4.8 8.0 0.00 0.00 0.00 58 1014.1
20260906111507 32 296 0.0 9.7 0.00 0.00 0.00 58 1014.1
20260906111002 32 0 3.2 19.3 0.00 0.00 0.00 55 1014.2
20260906110457 32 313 0.0 6.4 0.00 0.00 0.00 58 1014.1
20260906105955 32 156 3.2 9.7 0.00 0.00 0.00 60 1014.2
20260906105452 32 308 4.8 9.7 0.00 0.00 0.00 58 1014.2
20260906104947 33 118 0.0 6.4 0.00 0.00 0.00 58 1014.3
20260906104446 33 325 3.2 9.7 0.00 0.00 0.00 57 1014.2
20260906103945 33 285 3.2 6.4 0.00 0.00 0.00 56 1014.3
20260906103444 33 87 4.8 8.0 0.00 0.00 0.00 58 1014.3
20260906102939 33 310 4.8 6.4 0.00 0.00 0.00 58 1014.1
20260906102438 32 209 3.2 9.7 0.00 0.00 0.00 58 1014.1
20260906101933 33 173 6.4 6.4 0.00 0.00 0.00 55 1014.1
20260906101428 33 183 3.2 4.8 0.00 0.00 0.00 55 1014.0
20260906100923 33 296 3.2 9.7 0.00 0.00 0.00 55 1014.4
20260906100418 33 216 3.2 14.5 0.00 0.00 0.00 55 1014.3
20260906095918 33 310 3.2 6.4 0.00 0.00 0.00 53 1014.3
20260906095414 33 247 3.2 6.4 0.00 0.00 0.00 53 1014.2
20260906094908 34 285 8.0 12.9 0.00 0.00 0.00 51 1014.2
20260906094403 33 111 3.2 8.0 0.00 0.00 0.00 51 1014.0
20260906093859 33 296 3.2 8.0 0.00 0.00 0.00 52 1014.2
20260906093355 34 135 3.2 8.0 0.00 0.00 0.00 51 1014.2
20260906092855 33 84 1.6 8.0 0.00 0.00 0.00 52 1014.1
20260906092355 33 299 0.0 4.8 0.00 0.00 0.00 53 1013.9
20260906091850 34 347 6.4 17.7 0.00 0.00 0.00 51 1014.1
20260906091346 33 298 1.6 12.9 0.00 0.00 0.00 52 1014.1
20260906090842 33 288 6.4 6.4 0.00 0.00 0.00 53 1014.1
20260906090342 33 348 1.6 4.8 0.00 0.00 0.00 54 1014.2
20260906085836 32 173 8.0 14.5 0.00 0.00 0.00 53 1014.0
20260906085335 33 173 6.4 12.9 0.00 0.00 0.00 55 1014.0
20260906084825 33 133 8.0 9.7 0.00 0.00 0.00 51 1014.1
20260906084324 32 158 4.8 11.3 0.00 0.00 0.00 53 1014.1
20260906083819 32 126 3.2 12.9 0.00 0.00 0.00 56 1014.2
20260906083314 32 170 6.4 12.9 0.00 0.00 0.00 56 1014.3
20260906082809 32 202 4.8 9.7 0.00 0.00 0.00 54 1014.5
20260906082306 33 120 3.2 9.7 0.00 0.00 0.00 52 1014.2
20260906081759 33 159 3.2 6.4 0.00 0.00 0.00 52 1014.5
20260906081255 32 251 0.0 8.0 0.00 0.00 0.00 53 1014.6
20260906080752 32 312 3.2 6.4 0.00 0.00 0.00 54 1014.7
20260906080248 33 172 3.2 6.4 0.00 0.00 0.00 52 1014.6
20260906075747 32 165 3.2 6.4 0.00 0.00 0.00 53 1014.8
20260906075241 32 181 4.8 6.4 0.00 0.00 0.00 55 1014.9
20260906074737 31 122 3.2 9.7 0.00 0.00 0.00 57 1014.8
20260906074236 32 175 6.4 17.7 0.00 0.00 0.00 58 1014.8
20260906073731 32 190 3.2 16.1 0.00 0.00 0.00 59 1015.0
20260906073231 32 303 4.8 6.4 0.00 0.00 0.00 59 1015.0
20260906072726 31 273 0.0 8.0 0.00 0.00 0.00 61 1014.9
20260906072222 30 127 3.2 8.0 0.00 0.00 0.00 64 1015.0
20260906071718 31 279 3.2 9.7 0.00 0.00 0.00 61 1015.2
20260906071217 31 284 4.8 12.9 0.00 0.00 0.00 62 1015.0
20260906070714 31 204 14.5 17.7 0.00 0.00 0.00 62 1014.9
20260906070209 30 160 3.2 6.4 0.00 0.00 0.00 63 1014.9
20260906065704 30 216 3.2 11.3 0.00 0.00 0.00 61 1014.9
20260906065159 30 183 4.8 16.1 0.00 0.00 0.00 62 1014.9
20260906064655 30 196 0.0 12.9 0.00 0.00 0.00 67 1014.9
20260906064150 29 194 6.4 8.0 0.00 0.00 0.00 68 1015.0
20260906063645 29 192 4.8 12.9 0.00 0.00 0.00 68 1014.8
20260906063141 30 180 6.4 9.7 0.00 0.00 0.00 66 1014.9
20260906062637 30 179 4.8 6.4 0.00 0.00 0.00 68 1014.7
20260906062135 29 143 6.4 12.9 0.00 0.00 0.00 70 1014.8
20260906061631 28 154 3.2 11.3 0.00 0.00 0.00 72 1014.6
20260906061131 28 159 6.4 14.5 0.00 0.00 0.00 71 1014.6
20260906060627 28 179 4.8 9.7 0.00 0.00 0.00 72 1014.7
20260906060120 28 160 6.4 11.3 0.00 0.00 0.00 73 1014.7
20260906055615 28 176 4.8 11.3 0.00 0.00 0.00 74 1014.6
20260906055110 28 181 6.4 9.7 0.00 0.00 0.00 74 1014.5
20260906054610 28 179 6.4 9.7 0.00 0.00 0.00 74 1014.5
20260906054100 28 168 6.4 9.7 0.00 0.00 0.00 74 1014.6
20260906053556 27 180 4.8 14.5 0.00 0.00 0.00 74 1014.6
20260906053052 27 148 8.0 14.5 0.00 0.00 0.00 76 1014.6
20260906052547 27 148 6.4 9.7 0.00 0.00 0.00 76 1014.7
20260906052044 26 155 4.8 12.9 0.00 0.00 0.00 76 1014.7
20260906051539 26 156 4.8 9.7 0.00 0.00 0.00 77 1014.5
20260906051034 26 136 6.4 12.9 0.00 0.00 0.00 78 1014.6
20260906050529 26 189 6.4 11.3 0.00 0.00 0.00 78 1014.5
20260906050024 26 182 6.4 9.7 0.00 0.00 0.00 78 1014.6
20260906045523 26 164 4.8 12.9 0.00 0.00 0.00 79 1014.5
20260906045019 25 157 6.4 9.7 0.00 0.00 0.00 80 1014.5
20260906044514 25 178 4.8 9.7 0.00 0.00 0.00 81 1014.5
20260906044009 25 173 8.0 11.3 0.00 0.00 0.00 80 1014.5
20260906043505 25 143 8.0 12.9 0.00 0.00 0.00 82 1014.7
20260906043001 24 149 6.4 8.0 0.00 0.00 0.00 83 1014.6
20260906042500 24 151 3.2 8.0 0.00 0.00 0.00 83 1014.6
20260906041959 24 191 8.0 8.0 0.00 0.00 0.00 83 1014.5
20260906041456 24 152 4.8 11.3 0.00 0.00 0.00 83 1014.7
20260906040955 24 188 6.4 8.0 0.00 0.00 0.00 83 1014.3
20260906040450 24 154 3.2 8.0 0.00 0.00 0.00 84 1014.5
20260906035946 23 177 6.4 8.0 0.00 0.00 0.00 84 1014.4
20260906035441 23 197 8.0 8.0 0.00 0.00 0.00 85 1014.3
20260906034936 23 200 6.4 9.7 0.00 0.00 0.00 85 1014.3
20260906034431 23 195 4.8 6.4 0.00 0.00 0.00 86 1014.2
20260906033926 23 154 3.2 4.8 0.00 0.00 0.00 86 1014.2
20260906033421 23 192 4.8 6.4 0.00 0.00 0.00 86 1014.3
20260906032916 23 183 3.2 4.8 0.00 0.00 0.00 86 1014.4
20260906032413 23 155 3.2 4.8 0.00 0.00 0.00 86 1014.2
20260906031907 23 202 4.8 6.4 0.00 0.00 0.00 86 1014.0
20260906031403 23 180 3.2 4.8 0.00 0.00 0.00 86 1014.2
20260906030858 23 192 4.8 6.4 0.00 0.00 0.00 86 1014.0
20260906030358 23 193 3.2 6.4 0.00 0.00 0.00 86 1014.0
20260906025852 23 183 3.2 4.8 0.00 0.00 0.00 86 1014.1
20260906025346 23 183 3.2 6.4 0.00 0.00 0.00 86 1013.9
20260906024845 23 185 3.2 6.4 0.00 0.00 0.00 86 1014.0
20260906024344 23 182 3.2 6.4 0.00 0.00 0.00 86 1014.0
20260906023840 23 181 1.6 3.2 0.00 0.00 0.00 86 1013.9
20260906023336 23 181 3.2 4.8 0.00 0.00 0.00 86 1014.0
20260906022831 23 189 3.2 4.8 0.00 0.00 0.00 86 1014.0
20260906022326 23 174 1.6 6.4 0.00 0.00 0.00 86 1013.9
20260906021822 23 189 3.2 3.2 0.00 0.00 0.00 86 1014.0
20260906021321 23 211 4.8 4.8 0.00 0.00 0.00 86 1014.0
20260906020816 23 186 3.2 6.4 0.00 0.00 0.00 86 1013.9
20260906020316 23 179 4.8 6.4 0.00 0.00 0.00 86 1014.0
20260906015816 23 203 3.2 4.8 0.00 0.00 0.00 86 1013.9
20260906015314 23 179 4.8 4.8 0.00 0.00 0.00 86 1013.9
20260906014808 23 185 3.2 6.4 0.00 0.00 0.00 86 1013.8
20260906014304 23 191 4.8 6.4 0.00 0.00 0.00 86 1013.7
20260906013800 23 183 3.2 6.4 0.00 0.00 0.00 86 1013.7
20260906013255 23 179 3.2 4.8 0.00 0.00 0.00 86 1013.7
20260906012751 23 165 3.2 4.8 0.00 0.00 0.00 86 1013.6
20260906012251 23 184 3.2 4.8 0.00 0.00 0.00 86 1013.6
20260906011747 23 203 4.8 4.8 0.00 0.00 0.00 85 1013.5
20260906011246 23 166 1.6 3.2 0.00 0.00 0.00 85 1013.5
20260906010742 23 186 3.2 4.8 0.00 0.00 0.00 85 1013.6
20260906010238 23 147 3.2 3.2 0.00 0.00 0.00 85 1013.8
20260906005733 23 198 3.2 4.8 0.00 0.00 0.00 85 1013.7
20260906005231 23 194 3.2 4.8 0.00 0.00 0.00 85 1013.7
20260906004731 23 197 3.2 4.8 0.00 0.00 0.00 85 1013.7
20260906004226 23 202 3.2 4.8 0.00 0.00 0.00 85 1013.6
20260906003721 23 194 4.8 6.4 0.00 0.00 0.00 85 1013.5
20260906003218 23 197 3.2 4.8 0.00 0.00 0.00 86 1013.6
20260906002717 23 208 3.2 4.8 0.00 0.00 0.00 86 1013.7
20260906002212 23 189 1.6 3.2 0.00 0.00 0.00 85 1013.5
20260906001708 23 177 0.0 3.2 0.00 0.00 0.00 85 1013.6
20260906001208 23 197 3.2 4.8 0.00 0.00 0.00 85 1013.7
20260906000703 23 203 0.0 3.2 0.00 0.00 0.00 85 1013.6
20260906000158 23 202 0.0 1.6 0.00 0.00 0.00 85 1013.5
20260905235657 23 205 1.6 3.2 0.00 0.00 0.00 85 1013.6
20260905235152 23 204 1.6 3.2 0.00 0.00 0.00 85 1013.4
20260905234647 23 198 1.6 3.2 0.00 0.00 0.00 85 1013.6
20260905234143 23 217 1.6 3.2 0.00 0.00 0.00 85 1013.6
20260905233638 23 199 0.0 3.2 0.00 0.00 0.00 85 1013.6
20260905233137 23 191 0.0 4.8 0.00 0.00 0.00 85 1013.6
20260905232633 23 198 4.8 4.8 0.00 0.00 0.00 84 1013.6
20260905232129 23 175 3.2 4.8 0.00 0.00 0.00 84 1013.8
20260905231629 23 190 3.2 3.2 0.00 0.00 0.00 84 1013.7
20260905231125 23 189 3.2 4.8 0.00 0.00 0.00 84 1013.7
20260905230620 23 196 1.6 4.8 0.00 0.00 0.00 84 1013.7
20260905230118 24 192 3.2 4.8 0.00 0.00 0.00 84 1013.8
20260905225613 24 194 3.2 6.4 0.00 0.00 0.00 84 1013.7
20260905225108 24 189 1.6 4.8 0.00 0.00 0.00 84 1013.9
20260905224607 24 196 3.2 3.2 0.00 0.00 0.00 83 1013.8
20260905224107 24 180 3.2 4.8 0.00 0.00 0.00 83 1013.8
20260905223604 24 187 4.8 4.8 0.00 0.00 0.00 83 1013.8
20260905223100 24 185 3.2 4.8 0.00 0.00 0.00 83 1014.0
20260905222554 24 198 3.2 3.2 0.00 0.00 0.00 83 1013.9
20260905222050 24 190 4.8 4.8 0.00 0.00 0.00 83 1014.1
20260905221546 25 190 4.8 4.8 0.00 0.00 0.00 83 1013.9
20260905221042 25 201 1.6 3.2 0.00 0.00 0.00 82 1014.0
20260905220537 25 165 1.6 3.2 0.00 0.00 0.00 82 1014.0
20260905220034 25 171 0.0 3.2 0.00 0.00 0.00 82 1014.0
20260905215533 25 180 1.6 3.2 0.00 0.00 0.00 82 1014.1
20260905215029 25 184 3.2 4.8 0.00 0.00 0.00 82 1014.1
20260905214525 25 193 3.2 3.2 0.00 0.00 0.00 81 1014.0
20260905214020 25 194 1.6 3.2 0.00 0.00 0.00 81 1014.3
20260905213515 25 213 1.6 1.6 0.00 0.00 0.00 81 1014.2
20260905213011 25 205 1.6 3.2 0.00 0.00 0.00 81 1014.2
20260905212505 25 203 3.2 3.2 0.00 0.00 0.00 81 1014.4
20260905212004 25 197 1.6 3.2 0.00 0.00 0.00 81 1014.4
20260905211459 25 194 3.2 3.2 0.00 0.00 0.00 81 1014.3
20260905210955 25 205 3.2 3.2 0.00 0.00 0.00 81 1014.4
20260905210451 25 199 3.2 3.2 0.00 0.00 0.00 81 1014.4
20260905205949 25 187 1.6 3.2 0.00 0.00 0.00 80 1014.5
20260905205445 25 208 0.0 1.6 0.00 0.00 0.00 80 1014.3
20260905204944 26 206 3.2 3.2 0.00 0.00 0.00 80 1014.3
20260905204439 26 203 4.8 4.8 0.00 0.00 0.00 80 1014.6
20260905203938 26 206 1.6 3.2 0.00 0.00 0.00 79 1014.5
20260905203434 26 218 3.2 3.2 0.00 0.00 0.00 79 1014.4
20260905202929 26 255 0.0 3.2 0.00 0.00 0.00 80 1014.7
20260905202424 26 213 0.0 1.6 0.00 0.00 0.00 80 1014.6
20260905201920 26 231 0.0 3.2 0.00 0.00 0.00 80 1014.7
20260905201415 26 219 0.0 1.6 0.00 0.00 0.00 80 1014.4
20260905200909 26 219 1.6 3.2 0.00 0.00 0.00 80 1014.6
20260905200405 26 235 1.6 3.2 0.00 0.00 0.00 80 1014.6
20260905195903 26 212 0.0 1.6 0.00 0.00 0.00 80 1014.5
20260905195358 26 228 1.6 3.2 0.00 0.00 0.00 80 1014.4
20260905194854 26 215 0.0 0.0 0.00 0.00 0.00 80 1014.3
20260905194353 26 230 0.0 1.6 0.00 0.00 0.00 79 1014.5
20260905193848 26 242 0.0 0.0 0.00 0.00 0.00 79 1014.3
20260905193343 26 246 0.0 0.0 0.00 0.00 0.00 79 1014.5
20260905192838 26 214 0.0 0.0 0.00 0.00 0.00 79 1014.4
20260905192334 26 255 0.0 1.6 0.00 0.00 0.00 79 1014.8
20260905191833 26 269 0.0 3.2 0.00 0.00 0.00 79 1014.8
20260905191332 26 242 0.0 1.6 0.00 0.00 0.00 80 1014.7
20260905190830 26 220 0.0 1.6 0.00 0.00 0.00 80 1014.7
20260905190325 26 245 1.6 3.2 0.00 0.00 0.00 80 1014.6
20260905185824 26 244 0.0 1.6 0.00 0.00 0.00 80 1014.6
20260905185319 26 211 0.0 0.0 0.00 0.00 0.00 79 1014.6
20260905184818 26 230 0.0 0.0 0.00 0.00 0.00 79 1014.8
20260905184317 26 297 0.0 0.0 0.00 0.00 0.00 79 1014.7
20260905183816 26 297 0.0 0.0 0.00 0.00 0.00 79 1014.8
20260905183312 26 268 0.0 0.0 0.00 0.00 0.00 79 1014.9
20260905182806 26 289 0.0 1.6 0.00 0.00 0.00 79 1014.8
20260905182306 26 269 0.0 1.6 0.00 0.00 0.00 79 1014.9
20260905181801 26 242 0.0 0.0 0.00 0.00 0.00 79 1014.7
20260905181301 26 269 0.0 0.0 0.00 0.00 0.00 78 1014.6
20260905180800 26 240 0.0 0.0 0.00 0.00 0.00 78 1014.5
20260905180255 26 322 0.0 0.0 0.00 0.00 0.00 78 1014.6
20260905175750 26 269 0.0 0.0 0.00 0.00 0.00 78 1014.6
20260905175244 26 284 0.0 0.0 0.00 0.00 0.00 77 1014.5
20260905174739 26 284 0.0 0.0 0.00 0.00 0.00 77 1014.7
20260905174230 27 287 0.0 1.6 0.00 0.00 0.00 77 1014.8
20260905173726 27 299 0.0 0.0 0.00 0.00 0.00 77 1014.5
20260905173221 27 298 0.0 3.2 0.00 0.00 0.00 76 1014.6
20260905172715 27 255 0.0 1.6 0.00 0.00 0.00 76 1014.5
20260905172215 27 336 0.0 1.6 0.00 0.00 0.00 76 1014.5
20260905171711 27 303 1.6 3.2 0.00 0.00 0.00 76 1014.4
20260905171206 27 202 0.0 3.2 0.00 0.00 0.00 76 1014.4
20260905170703 27 322 0.0 3.2 0.00 0.00 0.00 76 1014.4
20260905170158 27 352 1.6 3.2 0.00 0.00 0.00 76 1014.1
20260905165658 27 311 0.0 1.6 0.00 0.00 0.00 76 1014.2
20260905165153 27 291 1.6 3.2 0.00 0.00 0.00 76 1014.1
20260905164648 27 271 3.2 3.2 0.00 0.00 0.00 76 1014.2
20260905164147 27 283 0.0 0.0 0.00 0.00 0.00 76 1014.0
20260905163643 27 343 0.0 1.6 0.00 0.00 0.00 75 1014.0
20260905163140 27 269 0.0 1.6 0.00 0.00 0.00 75 1013.8
20260905162636 27 280 4.8 4.8 0.00 0.00 0.00 75 1014.0
20260905162134 27 322 3.2 3.2 0.00 0.00 0.00 75 1013.7
20260905161629 27 305 1.6 6.4 0.00 0.00 0.00 75 1013.8
20260905161127 27 230 0.0 3.2 0.00 0.00 0.00 74 1013.8
20260905160626 27 352 0.0 4.8 0.00 0.00 0.00 74 1013.9
20260905160121 27 331 0.0 4.8 0.00 0.00 0.00 74 1013.9
20260905155620 27 315 3.2 6.4 0.00 0.00 0.00 73 1013.8
20260905155119 28 289 3.2 4.8 0.00 0.00 0.00 73 1013.8
20260905154614 28 304 6.4 8.0 0.00 0.00 0.00 73 1013.8
20260905154109 28 22 3.2 4.8 0.00 0.00 0.00 73 1013.8
20260905153605 28 323 1.6 4.8 0.00 0.00 0.00 72 1013.6
20260905153101 28 254 3.2 3.2 0.00 0.00 0.00 72 1013.9
20260905152555 28 309 3.2 3.2 0.00 0.00 0.00 71 1013.8
20260905152050 28 20 0.0 6.4 0.00 0.00 0.00 71 1013.7
20260905151545 28 290 3.2 3.2 0.00 0.00 0.00 71 1013.8
20260905151041 28 224 0.0 4.8 0.00 0.00 0.00 71 1013.7
20260905150536 28 10 0.0 4.8 0.00 0.00 0.00 71 1013.8
20260905150033 28 333 3.2 3.2 0.00 0.00 0.00 71 1013.6
20260905145527 28 269 0.0 9.7 0.00 0.00 0.00 70 1013.7
20260905145027 28 2 1.6 9.7 0.00 0.00 0.00 70 1013.6
20260905144521 29 317 4.8 8.0 0.00 0.00 0.00 69 1013.6
20260905144020 30 14 1.6 6.4 0.00 0.00 0.00 69 1013.5
20260905143519 30 286 3.2 9.7 0.00 0.00 0.00 69 1013.5
20260905143015 30 281 3.2 12.9 0.00 0.00 0.00 66 1013.4
20260905142513 30 327 3.2 6.4 0.00 0.00 0.00 68 1013.4
20260905142009 30 49 1.6 9.7 0.00 0.00 0.00 68 1013.2
20260905141508 30 330 3.2 8.0 0.00 0.00 0.00 67 1013.4
20260905141006 30 312 8.0 8.0 0.00 0.00 0.00 67 1013.5
20260905140500 30 306 1.6 4.8 0.00 0.00 0.00 66 1013.3
20260905135958 30 5 3.2 9.7 0.00 0.00 0.00 64 1013.3
20260905135455 30 251 0.0 6.4 0.00 0.00 0.00 66 1013.4
20260905134950 30 317 6.4 8.0 0.00 0.00 0.00 66 1013.3
20260905134449 31 316 3.2 9.7 0.00 0.00 0.00 64 1013.2
20260905133948 31 305 3.2 6.4 0.00 0.00 0.00 64 1013.2
20260905133443 30 225 1.6 6.4 0.00 0.00 0.00 66 1013.3
20260905132937 30 59 0.0 9.7 0.00 0.00 0.00 66 1013.2
20260905132432 30 350 3.2 8.0 0.00 0.00 0.00 66 1013.4
20260905131927 31 62 3.2 9.7 0.00 0.00 0.00 65 1013.3